Flag Weather past 2 weeks in Tulln an der Donau, Lower Austria, Austria

Now
43 °F

Fog.


Feels Like: 40 °F
Forecast: 38 / 59 °F
Wind: 5 mph from Northwest

Location: Tulln Airport

Current Time: Oct 31, 2014 at 6:10:16 AM

Latest Report: Oct 31, 2014 at 4:50 AM


Visibility: 2 mi

Pressure: 30.33 "Hg

Humidity: 100%

Dew point: 43 °F

Location of Tulln an der DonauLocation

Historic Weather in Tulln an der Donau — Graph

°F

Tulln an der Donau temperature yesterday

Maximum temperature yesterday: 50 °F (at 1:50 PM)
Minimum temperature yesterday: 41 °F (at 9:50 PM)
Average temperature yesterday: 45 °F

Past Weeks' High & Low Weather Summary

 TemperatureHumidityPressure
High68 °F (Oct 16, 2:50 PM)100% (Oct 16, 7:50 AM)30.45 "Hg (Oct 16, 7:50 AM)
Low32 °F (Oct 29, 5:50 AM)60% (Oct 16, 2:50 PM)29.62 "Hg (Oct 21, 10:50 PM)
Average51 °F86%30.11 "Hg
* Reported Oct 16 5:50 AM — Oct 31 4:50 AM, Tulln an der Donau, Weather by CustomWeather, © 2014

Note: Actual official high and low records may vary slightly from our data, if they occured in-between our weather recording intervals... More about our weather records

Advertising

Tulln an der Donau weather history for previous 24 hours

 ConditionsComfort  
Time TempWeatherWind HumidityBarometerVisibility
4:50 AM
Oct 31
43 °FFog.5 mph100%30.33 "Hg2 mi
9:50 PM
Oct 30
41 °FFog.2 mph100%30.36 "Hg3 mi
8:50 PM43 °FFog.3 mph93%30.33 "Hg3 mi
7:50 PM43 °FPassing clouds.2 mph93%30.33 "Hg4 mi
6:50 PM43 °FPassing clouds.No wind93%30.33 "Hg4 mi
5:50 PM45 °FPassing clouds.2 mph87%30.30 "Hg4 mi
4:50 PM46 °FPassing clouds.2 mph87%30.30 "Hg4 mi
3:50 PM48 °FPartly sunny.No wind82%30.30 "Hg4 mi
2:50 PM48 °FPartly sunny.2 mph82%30.30 "Hg4 mi
1:50 PM50 °FPartly sunny.2 mph76%30.30 "Hg4 mi
12:50 PM48 °FPartly sunny.No wind76%30.27 "Hg4 mi
11:50 AM48 °FPartly sunny.1 mph76%30.27 "Hg4 mi
10:50 AM46 °FPartly sunny.1 mph82%30.27 "Hg4 mi
9:50 AM46 °FPartly sunny.2 mph82%30.27 "Hg4 mi
8:50 AM45 °FPartly sunny.No wind87%30.27 "Hg4 mi
7:50 AM45 °FPartly sunny.1 mph87%30.27 "Hg4 mi
6:50 AM43 °FFog.2 mph93%30.24 "Hg3 mi
Weather by CustomWeather, © 2014

See weather overviewHow to use our weather pages